Weather History for KRVS - December, 2013

Change the Weather History Date:

Wednesday, December 11, 2013

  Actual Average (KTUL) Record (KTUL)
Temperature  
Mean Temperature 27 °F 40 °F  
Max Temperature 37 °F 50 °F 76 °F (1929)
Min Temperature 17 °F 30 °F 4 °F (1917)
Degree Days  
Heating Degree Days 38 25  
Month to date heating degree days 259  
Since 1 July heating degree days 895  
Moisture  
Dew Point 19 °F    
Average Humidity 72    
Maximum Humidity 92    
Minimum Humidity 52    
Precipitation  
Precipitation 0.00 in 0.09 in 1.07 in (2007)
Month to date precipitation 0.95  
Year to date precipitation 39.43  
Sea Level Pressure  
Sea Level Pressure 30.54 in    
Wind  
Wind Speed 3 mph (NNE)    
Max Wind Speed 15 mph    
Max Gust Speed 23 mph    
Visibility 10 miles    
Events      
T = Trace of Precipitation, MM = Missing Value Source: NWS Daily Summary

Daily Weather History Graph

Daily Weather History Graph

Search for Another Location

Airport or City:

Trip Planner

Search our weather history database for the weather conditions in past years. The results will help you decide how hot, cold, wet, or windy it might be!

Date:

Astronomy

Dec. 11, 2013 Rise Set
Actual Time 7:24 AM CST 5:10 PM CST
Civil Twilight 6:56 AM CST 5:38 PM CST
Nautical Twilight 6:24 AM CST 6:10 PM CST
Astronomical Twilight 5:52 AM CST 6:41 PM CST
Moon 1:36 PM CST (12/11) 1:55 AM CST (12/11)
Length of Visible Light 10h 42m
Length of Day
9h 45m
Waxing Gibbous, 72% of the Moon is Illuminated
Dec 11
Waxing Gibbous
Dec 17
Full
Dec 25
Last Quarter
Jan 1
New
Jan 7
First Quarter

Hourly Weather History & Observations

Time (CST) Temp. Windchill Dew Point Humidity Pressure Visibility Wind Dir Wind Speed Gust Speed Precip Events Conditions
12:53 AM 19.9 °F - 16.0 °F 85% 30.32 in 10.0 mi Calm Calm - N/A   Clear
1:53 AM 23.0 °F 18.4 °F 18.0 °F 81% 30.34 in 10.0 mi South 3.5 mph - N/A   Clear
2:53 AM 21.9 °F - 18.0 °F 85% 30.37 in 10.0 mi Calm Calm - N/A   Clear
3:53 AM 19.9 °F - 17.1 °F 89% 30.39 in 10.0 mi Calm Calm - N/A   Clear
4:53 AM 19.0 °F - 17.1 °F 92% 30.40 in 10.0 mi Calm Calm - N/A   Clear
5:53 AM 18.0 °F - 16.0 °F 92% 30.43 in 10.0 mi Calm Calm - N/A   Clear
6:53 AM 17.1 °F - 14.0 °F 88% 30.47 in 10.0 mi Calm Calm - N/A   Clear
7:53 AM 17.1 °F - 15.1 °F 92% 30.51 in 10.0 mi Calm Calm - N/A   Clear
8:53 AM 25.0 °F - 21.9 °F 88% 30.53 in 10.0 mi Calm Calm - N/A   Clear
9:53 AM 30.9 °F 21.7 °F 19.9 °F 64% 30.57 in 10.0 mi North 11.5 mph 23.0 mph N/A   Clear
10:53 AM 33.1 °F 23.0 °F 21.0 °F 61% 30.59 in 10.0 mi NNE 15.0 mph - N/A   Clear
11:53 AM 36.0 °F 27.1 °F 25.0 °F 64% 30.58 in 10.0 mi NNE 13.8 mph 20.7 mph N/A   Clear
12:53 PM 37.0 °F 28.9 °F 25.0 °F 62% 30.58 in 10.0 mi NNE 12.7 mph 23.0 mph N/A   Clear
1:53 PM 37.9 °F 29.6 °F 23.0 °F 55% 30.58 in 10.0 mi NNE 13.8 mph 18.4 mph N/A   Clear
2:53 PM 37.9 °F 30.5 °F 21.9 °F 53% 30.59 in 10.0 mi NNE 11.5 mph - N/A   Clear
3:53 PM 37.0 °F 30.4 °F 21.0 °F 52% 30.60 in 10.0 mi North 9.2 mph - N/A   Clear
4:53 PM 35.1 °F 29.3 °F 19.9 °F 54% 30.61 in 10.0 mi NNE 6.9 mph - N/A   Clear
5:53 PM 33.1 °F 30.0 °F 19.0 °F 56% 30.63 in 10.0 mi North 3.5 mph - N/A   Clear
6:53 PM 30.0 °F 26.5 °F 19.0 °F 64% 30.65 in 10.0 mi North 3.5 mph - N/A   Clear
7:53 PM 30.0 °F 26.5 °F 18.0 °F 61% 30.66 in 10.0 mi North 3.5 mph - N/A   Clear
8:53 PM 28.9 °F 25.2 °F 16.0 °F 58% 30.67 in 10.0 mi North 3.5 mph - N/A   Clear
9:53 PM 23.0 °F - 17.1 °F 78% 30.66 in 10.0 mi Calm Calm - N/A   Clear
10:53 PM 23.0 °F - 16.0 °F 74% 30.67 in 10.0 mi Calm Calm - N/A   Clear
11:53 PM 21.0 °F - 16.0 °F 81% 30.66 in 10.0 mi Calm Calm - N/A   Clear